星链-1715 (STARLINK-1715 )

导读 | 星芒AI

STARLINK-1715 是 SpaceX 星链(Starlink)卫星互联网项目中的第 1715 颗卫星,属于低轨通信卫星群的一部分。该卫星旨在为全球用户提供高速、低延迟的互联网服务,尤其关注网络覆盖不足的地区。它采用先进的推进系统和激光通信技术,以提高通信效率和轨道调整能力。STARLINK-1715 于近期成功发射并部署至预定轨道,进一步扩展了星链星座的规模和网络性能。

基本信息
目录编号:
46671
目录名称:
STARLINK-1715
国际标识:
2020-073B
轨道中心:
EARTH
卫星名称:
星链-1715
卫星全名:
星链-1715 (STARLINK-1715 )
卫星状态:
已陨落 最后检测时间 2025-03-07
发射日期:
2020-10-18 UTC
国别 :
美国 (US)
星等 :
--
轨道信息
数据来源 国际轨道数据
星历时间: 2025-03-07T16:38:21+0800
轨道信息已过期284天
半长轴: 6545.759km
偏心率: 0.0000269
轨道倾角: 53.025°
近地点辐角 248.946°
升交点赤经 51.008°
平近点角 267.991°
近地点: 167.447km
远地点: 167.801km
周期: 87.841分钟
每日圈数: 16.393164
详细信息
固有亮度:
5
最大亮度:
2.5
卫星平台:
Starlink V1.0
覆盖范围:
全球
运营商:
太空探索技术公司
运营商所在国:
美国
制造商(研发单位):
太空探索技术公司
制造商所在国:
美国
使用方式:
暂无
卫星简介
星链(Starlink)计划是由太空探索技术公司(SpaceX)提出的一个巨型低轨卫星互联网星座项目,计划在2019年至2024年间在太空搭建由约1.2万颗卫星组成的“星链”网络,其中1584颗将部署在地球上空550千米处的近地轨道,并从2020年开始工作。该卫星仍在工作。